TimeCST,TemperatureF,Dew PointF,Humidity,Sea Level PressureIn,VisibilityMPH,Wind Direction,Wind SpeedMPH,Gust SpeedMPH,PrecipitationIn,Events,Conditions,WindDirDegrees,DateUTC
12:15 AM,28.4,23.0,80,30.39,10.0,Calm,Calm,-,N/A,,Mostly Cloudy,0,2013-01-04 06:15:00
12:35 AM,30.2,23.0,75,30.38,10.0,Calm,Calm,-,N/A,,Overcast,0,2013-01-04 06:35:00
12:55 AM,28.4,24.8,86,30.39,10.0,Calm,Calm,-,N/A,,Overcast,0,2013-01-04 06:55:00
1:15 AM,28.4,23.0,80,30.39,10.0,Calm,Calm,-,N/A,,Overcast,0,2013-01-04 07:15:00
1:35 AM,30.2,24.8,80,30.40,10.0,Calm,Calm,-,N/A,,Overcast,0,2013-01-04 07:35:00
1:55 AM,30.2,26.6,86,30.40,10.0,Calm,Calm,-,N/A,,Overcast,0,2013-01-04 07:55:00
2:15 AM,32.0,26.6,80,30.40,10.0,Calm,Calm,-,N/A,,Overcast,0,2013-01-04 08:15:00
2:35 AM,32.0,26.6,80,30.40,10.0,Calm,Calm,-,N/A,,Overcast,0,2013-01-04 08:35:00
2:55 AM,30.2,26.6,86,30.40,10.0,Calm,Calm,-,N/A,,Overcast,0,2013-01-04 08:55:00
3:15 AM,30.2,26.6,86,30.40,10.0,Calm,Calm,-,N/A,,Overcast,0,2013-01-04 09:15:00
5:35 AM,26.6,24.8,93,30.41,10.0,Calm,Calm,-,N/A,,Mostly Cloudy,0,2013-01-04 11:35:00
7:47 AM,26.6,23.0,86,30.44,10.0,Calm,Calm,-,N/A,,Partly Cloudy,0,2013-01-04 13:47:00
8:57 AM,28.4,24.8,86,30.45,10.0,Calm,Calm,-,N/A,,Partly Cloudy,0,2013-01-04 14:57:00
9:57 AM,32.0,23.0,69,30.46,10.0,Calm,Calm,-,N/A,,Partly Cloudy,0,2013-01-04 15:57:00
10:45 AM,35.6,21.2,56,30.46,10.0,WSW,3.5,-,N/A,,Partly Cloudy,250,2013-01-04 16:45:00
11:45 AM,37.4,19.4,48,30.43,10.0,WNW,5.8,-,N/A,,Partly Cloudy,290,2013-01-04 17:45:00
12:58 PM,41.0,19.4,42,30.39,10.0,WNW,9.2,-,N/A,,Clear,300,2013-01-04 18:58:00
1:56 PM,41.0,19.4,42,30.37,10.0,NW,6.9,-,N/A,,Partly Cloudy,310,2013-01-04 19:56:00
2:47 PM,42.8,19.4,39,30.36,10.0,WNW,6.9,-,N/A,,Clear,300,2013-01-04 20:47:00
3:45 PM,44.6,19.4,37,30.36,10.0,Calm,Calm,-,N/A,,Partly Cloudy,0,2013-01-04 21:45:00
4:45 PM,42.8,19.4,39,30.35,10.0,Calm,Calm,-,N/A,,Partly Cloudy,0,2013-01-04 22:45:00
5:54 PM,37.4,21.2,52,30.35,10.0,Calm,Calm,-,N/A,,Clear,0,2013-01-04 23:54:00
6:46 PM,35.6,21.2,56,30.35,10.0,Calm,Calm,-,N/A,,Clear,0,2013-01-05 00:46:00
7:48 PM,37.4,19.4,48,30.35,10.0,SSW,6.9,-,N/A,,Clear,200,2013-01-05 01:48:00
8:15 PM,37.4,19.4,48,30.35,10.0,SSW,3.5,-,N/A,,Clear,200,2013-01-05 02:15:00
8:35 PM,37.4,19.4,48,30.35,10.0,Calm,Calm,-,N/A,,Clear,0,2013-01-05 02:35:00
8:46 PM,37.4,19.4,48,30.35,10.0,SW,8.1,-,N/A,,Clear,220,2013-01-05 02:46:00
8:55 PM,37.4,19.4,48,30.35,10.0,SSW,4.6,-,N/A,,Clear,210,2013-01-05 02:55:00
9:15 PM,35.6,19.4,52,30.35,10.0,SSW,5.8,-,N/A,,Clear,210,2013-01-05 03:15:00
9:35 PM,35.6,23.0,60,30.35,10.0,SSW,5.8,-,N/A,,Clear,210,2013-01-05 03:35:00
9:55 PM,35.6,23.0,60,30.35,10.0,Calm,Calm,-,N/A,,Clear,0,2013-01-05 03:55:00
10:15 PM,35.6,23.0,60,30.34,10.0,Calm,Calm,-,N/A,,Clear,0,2013-01-05 04:15:00
10:35 PM,35.6,23.0,60,30.34,10.0,SSW,5.8,-,N/A,,Clear,200,2013-01-05 04:35:00
10:55 PM,33.8,23.0,65,30.34,10.0,SSW,5.8,-,N/A,,Clear,210,2013-01-05 04:55:00
11:15 PM,33.8,23.0,65,30.34,10.0,Calm,Calm,-,N/A,,Clear,0,2013-01-05 05:15:00
11:35 PM,33.8,23.0,65,30.34,10.0,SW,3.5,-,N/A,,Clear,220,2013-01-05 05:35:00
11:55 PM,32.0,23.0,69,30.31,10.0,Calm,Calm,-,N/A,,Clear,0,2013-01-05 05:55:00